Estación Meteorológica Peña el Pijo (Robertgarden) [ 07/11/20 22:15:39 CEST ]

Fecha Hora Presion(HPa) Temp (°C) Humedad % Rocio (°C) Viento ( m/s) Direccion Lluvia 1Hora(mm) Lluvia 24H(mm) LLuvia Total(mm)
2020-Apr-25 01:09:44 1003.300 - - - - W     39.88
2020-Apr-25 02:09:01 1003.000 - - - - W     39.88
2020-Apr-25 03:09:04 1002.100 - - - - W     39.88
2020-Apr-25 04:09:01 1000.900 - - - - W     39.88
2020-Apr-25 05:08:50 1000.400 - - - - W     39.88
2020-Apr-25 06:09:39 1000.400 - - - - W     39.88
2020-Apr-25 07:09:38 1000.400 - - - - W     39.88
2020-Apr-25 08:10:11 1000.300 - - - - W     39.88
2020-Apr-25 09:10:25 1000.400 - - - - W     39.88
2020-Apr-25 10:10:45 1000.300 - - - - W     39.88
2020-Apr-25 11:09:12 1000.400 - - - - W     39.88
2020-Apr-25 12:08:59 1000.500 - - - - W     39.88
2020-Apr-25 13:09:20 1000.400 - - - - W     39.88
2020-Apr-25 14:09:16 1000.300 - - - - W     39.88
2020-Apr-25 15:09:08 1000.300 - - - - W     39.88
2020-Apr-25 16:09:17 1000.100 - - - - W     39.88
2020-Apr-25 17:09:22 999.700 - - - - W     39.88
2020-Apr-25 18:09:07 999.600 - - - - W     39.88
2020-Apr-25 19:09:19 999.700 - - - - W     39.88
2020-Apr-25 20:09:14 999.800 - - - - W     39.88
2020-Apr-25 21:09:18 1000.400 - - - - W     39.88
2020-Apr-25 22:09:26 1001.300 - - - - W     39.88
2020-Apr-25 23:09:41 1001.800 - - - - W     39.88

Temperatura Máxima:    Temperatura Mínima:
Presión Máxima:1003.300 Hpa    Presión Mínima:999.600 Hpa


Volver